Regional Weather Roundup
Issued by NWS

Home | Current Version | Previous Version | Graphics & Text | Print | Product List | Glossary On
Versions: 1 2 3 4 5 6 7 8 9 10 11 12 13 14 15 16 17 18 19 20 21 22 23 24 25 26 27 28 29 30 31 32 33 34 35 36 37 38 39 40 41 42 43 44 45 46 47 48 49 50
000
ASUS45 KBOI 010410
RWRID
WEATHER ROUNDUP FOR IDAHO
NATIONAL WEATHER SERVICE BOISE ID
1000 PM MDT TUE MAR 31 2015

NOTE: "FAIR" INDICATES FEW OR NO CLOUDS BELOW 12000 FEET
WITH NO SIGNIFICANT WEATHER AND/OR OBSTRUCTIONS TO VISIBILITY

IDZ012-014-010500-
SOUTHWEST IDAHO


CITY           SKY/WX    TMP DP  RH WIND       PRES   REMARKS
BOISE          MOCLDY    46  28  49 NW15      30.03R
CALDWELL       CLOUDY    46  27  46 W15       30.07R
MOUNTAIN HOME  CLOUDY    46  27  46 NW17      30.02R
$$

IDZ016-017-010500-
SOUTHCENTRAL IDAHO


CITY           SKY/WX    TMP DP  RH WIND       PRES   REMARKS
BURLEY         CLOUDY    45  28  51 SW20G35   29.95R
JEROME         PTCLDY    43  25  49 SW29G37   29.95R
TWIN FALLS     CLOUDY    45  25  45 W23G32    29.99R
$$

IDZ019>023-010500-
SOUTHEAST IDAHO


CITY           SKY/WX    TMP DP  RH WIND       PRES   REMARKS
IDAHO FALLS    PTCLDY    56  26  31 W17       29.76R
POCATELLO      MOCLDY    48  31  51 SW30G38   29.89R
REXBURG        PTCLDY    54  23  30 W14       29.74R
$$

IDZ006-010-011-018-031-032-010500-
CENTRAL IDAHO MOUNTAINS


CITY           SKY/WX    TMP DP  RH WIND       PRES   REMARKS
MCCALL         CLOUDY    33  24  69 N6        29.98R WCI  28
HAILEY         PTCLDY    46  28  49 NW10G21   29.87R
STANLEY          N/A     34  29  82 VRB5      29.92R WCI  30
SALMON         CLOUDY   N/A N/A N/A SW10      29.92R
CHALLIS        MOCLDY    41  32  70 W8        29.86R
$$

IDZ002-004-006-007-026-010500-
NORTHERN IDAHO


CITY           SKY/WX    TMP DP  RH WIND       PRES   REMARKS
LEWISTON       PTCLDY    50  29  44 SW14      29.99R
LOWELL           N/A     41  40  96 CALM      30.05R
COEUR D`ALENE  PTCLDY    43  21  42 N16       29.91R
MULLAN PASS    CLOUDY    26  22  84 SW15G25   29.86R WCI  14
$$



USA.gov is the U.S. government's official web portal to all federal, state and local government web resources and services.